Showing default

COSMOS 1174, 11765

Orbit data source: Space-Track

COSMOS 1174, 11765 is a payload satellite owned by PKO (CIS) in LEO that was launched on Fri, 18 Apr 1980 UTC via a TSIKLON-2 launch vehicle from the Tyuratam Missile And Space Complex (TTMTR). Payload-class satellites include a variety of spacecraft equipped with specific instruments for various scientific and technological missions. These include communications satellites like Starlink; space stations such as the ISS; scientific satellites like the Hubble; Earth observation satellites from companies like Planet Labs, Umbra, and HawkEye 360; GPS; miniature CubeSats for education and research; and military/defense satellites.

Loading next visibility...
Identifier
11765, 1980-030A
Orbit
LEO
Country
Flag of CISCIS
Related business
Manufacturer
Kometa
Mission
Spacecraft
Bus & Motor
IS, Unknown motor
Mass
1,400 kg wet, ~1,400 kg dry
Launch date (UTC)
1980-04-18 (46 years ago)
Launch vehicle
TSIKLON-2
Launch site
Tyuratam Missile And Space Complex (TTMTR)
Object type
Payload
Rocket body
Debris
Shape & HBR
Unknown
Radar Cross Section
Large (>1 m²)

Expand to show TLE details & history
Last TLE update: 10 hours ago

TLE from 10 hours ago
0 COSMOS 1174
1 11765U 80030A   26094.27757850  .00004861  00000-0  22107-3 0  9997
2 11765  66.0797  73.3333 0472846 153.2922 209.3410 14.57502279368158
Epoch: 2026-04-04T06:39Z
TLE epoch observation values (Epoch: 2026-04-04T06:39:42.782Z)
Latitude
-0°
Longitude
140.80538°
Altitude
998.763 km
Speed
7.198 km/s
True Right ascension
04h 53m 19s
True Declination
0° 00' 00"
Sunlit
Object was in daylight at epoch
Visualization orbit readout
Latitude
Unknown
Longitude
Unknown
Altitude
Unknown
Speed
Unknown
Apparent Right ascension
Unknown
Apparent Declination
Unknown
Sunlit
N/A
Visualization observer readout
Local Sidereal Time
22:11:19
Azimuth
Unknown
Elevation
Unknown
Doppler factor
Unknown
Orbital elements
Apogee altitude
1,034.345 km
Perigee altitude
365.002 km
Semi-major axis
7,077.81 km
Eccentricity
0.04728
Inclination
66.0797°
RAAN
73.3333°
Arg. of periapsis
153.2922°
True anomaly
206.81708°
Mean anomaly
209.341°
Eccentric anomaly
208.06634°
Mean motion
3.64498 °/min
Orbital period
98.77 mins
BSTAR
0.00022107

Documentation

Showing up to 5 results
|